Погода в Чунояре

Россия / Красноярский край     57°26′58″N   97°19′35″E
темп.,
°C
ветер,
м/с
пор.,
м/с
влажн.,
%
обл.,
%
осадки,
мм/ч
давл.,
гПа
погр.,
м
28 ноября, вс
вс2801:00−11ююз41289100 0.3 1030699
04:00−9ююз41093100 0.5 1027882
07:00−8ююз41193100 1.0 1024869
10:00−7юз41093100 0.5 10221042
13:00−7зюз4991100 1.1 10211010
16:00−7зюз41091100 0.2 1023815
19:00−7зюз41092100 0.4 1024768
22:00−7зюз41294100 0.2 1024686
29 ноября, пн
пн2901:00−6зюз51293100 0.8 1024838
04:00−7зюз51392100 0.3 1024861
07:00−7з61489100 0.5 1025891
10:00−8зюз61391100 0.2 1027937
13:00−7з51288100 0.3 10281121
16:00−7з41190100 0.1 1029981
19:00−8зюз3992100 0.3 1030609
22:00−8юз2795100 0.1 1029403
30 ноября, вт
вт3001:00−8юз2995100 0.6 1027475
04:00−7юз31094100 0.4 1025564
07:00−6зюз41292100 0.6 1024610
10:00−6юз51388100 0.0 1022683
13:00−5зюз61477100 0.0 1020825
16:00−5зюз51574100 0.0 1019815
19:00−5зюз61585100 0.0 1019911
22:00−6зюз61491100 0.1 1019875
1 декабря, ср
ср101:00−6зюз51491100 0.3 1018884
04:00−6зюз61490100 0.3 1018929
07:00−6з51489100 0.4 1019862
10:00−7з51388100 0.1 1021894
13:00−6з51286100 0.1 1023914
16:00−6з41088100 0.1 1025776
19:00−7зюз2794100 0.1 1025454
22:00−7ююз2596100 0.8 1024300
2 декабря, чт
чт201:00−7ю2794100 1.3 1022344
04:00−7юз31187100 0.1 1019596
07:00−5зюз4128659 0.1 1018696
10:00−5зюз51487100 0.0 1018731
13:00−4зюз41393100 0.1 1018738
16:00−3зюз41293100 0.3 1018696
19:00−3зюз41492100 0.8 1017670
22:00−3зюз41380100 0.1 1016628